CZ-6A DEB, 54341

Orbit data source: Space-Track

CZ-6A DEB, 54341 is space debris in SSO originally from a launch on Fri, 11 Nov 2022 UTC launched from the Taiyaun Space Center, China (TSC). Debris objects in space refer to the collection of defunct objects orbiting the Earth. Examples of debris include non-operational satellites, rocket bodies, and fragments generated from explosions, collisions, or faulty payload assembly.

Loading next visibility...
Identifier
54341, 2022-151CL
Orbit
SSO
Country
Flag of CNCN / PRC
Related business
Manufacturer
SAST
Mission
Spacecraft
Bus & Motor
Unknown
Mass
Unknown
Launch date (UTC)
2022-11-11 (4 years ago)
Launch vehicle
Unknown
Launch site
Taiyaun Space Center, China (TSC)
Object type
Payload
Rocket body
Debris
Shape & HBR
Unknown shape, 0.2 m
Radar Cross Section
Medium (>0.1 m² and <1 m²)

Expand to show TLE details & history
Last TLE update: 14 hours ago

TLE from 14 hours ago
0 CZ-6A DEB
1 54341U 22151CL  26263.85732710  .00000640  00000-0  29542-3 0  9995
2 54341  98.7660 283.1304 0047715  67.3650 293.2565 14.23856829199534
Epoch: 2026-09-20T20:34Z
TLE epoch observation values (Epoch: 2026-09-20T20:34:33.061Z)
Latitude
-0.00002°
Longitude
-25.25284°
Altitude
801.846 km
Speed
7.459 km/s
True Right ascension
18h 52m 31s
True Declination
0° 00' 00"
Sunlit
Object was in daylight at epoch
Visualization orbit readout
Latitude
Unknown
Longitude
Unknown
Altitude
Unknown
Speed
Unknown
Apparent Right ascension
Unknown
Apparent Declination
Unknown
Sunlit
N/A
Visualization observer readout
Local Sidereal Time
04:02:03
Azimuth
Unknown
Elevation
Unknown
Doppler factor
Unknown
Orbital elements
Apogee altitude
843.791 km
Perigee altitude
775.199 km
Semi-major axis
7,187.632 km
Eccentricity
0.00477
Inclination
98.766°
RAAN
283.1304°
Arg. of periapsis
67.365°
True anomaly
292.75297°
Mean anomaly
293.2565°
Eccentric anomaly
293.00486°
Mean motion
3.56176 °/min
Orbital period
101.07 mins
BSTAR
0.00029542
Loading maneuver chart data...
Computing Atmospheric mass density...
Loading historical data...
Loading historical data...
Loading historical data...
Loading historical data...
Loading historical data...
Loading historical data...
Loading historical data...

Documentation

Showing up to 5 results
|